| time (UTC) | temp F | wind direction | speed MPH | gust MPH | rain 1hr in | rain 24hr in | rain mn in | humidity % | barometer mb |
| 20260901194004 | 89 | 31 | 2.0 | 4.0 | 0.00 | 0.00 | 0.00 | 63 | 1013.6 |
| 20260901193026 | 89 | 342 | 2.0 | 7.0 | 0.00 | 0.00 | 0.00 | 61 | 1013.6 |
| 20260901192502 | 89 | 109 | 2.0 | 5.0 | 0.00 | 0.00 | 0.00 | 61 | 1013.6 |
| 20260901192003 | 89 | 15 | 2.0 | 4.0 | 0.00 | 0.00 | 0.00 | 62 | 1013.6 |
| 20260901191518 | 89 | 77 | 2.0 | 6.0 | 0.00 | 0.00 | 0.00 | 60 | 1013.5 |
| 20260901190504 | 89 | 341 | 2.0 | 5.0 | 0.00 | 0.00 | 0.00 | 59 | 1013.6 |
| 20260901185501 | 89 | 329 | 1.0 | 2.0 | 0.00 | 0.00 | 0.00 | 61 | 1013.6 |
| 20260901184515 | 89 | 48 | 3.0 | 6.0 | 0.00 | 0.00 | 0.00 | 59 | 1013.7 |
| 20260901183501 | 90 | 342 | 2.0 | 5.0 | 0.00 | 0.00 | 0.00 | 60 | 1013.8 |
| 20260901183025 | 89 | 168 | 3.0 | 6.0 | 0.00 | 0.00 | 0.00 | 60 | 1013.8 |
| 20260901182002 | 90 | 348 | 3.0 | 8.0 | 0.00 | 0.00 | 0.00 | 60 | 1014.1 |
| 20260901180500 | 89 | 331 | 3.0 | 6.0 | 0.00 | 0.00 | 0.00 | 61 | 1014.2 |
| 20260901180026 | 89 | 11 | 3.0 | 6.0 | 0.00 | 0.00 | 0.00 | 62 | 1014.2 |
| 20260901175003 | 88 | 36 | 3.0 | 9.0 | 0.00 | 0.00 | 0.00 | 62 | 1014.4 |
| 20260901174517 | 89 | 331 | 3.0 | 9.0 | 0.00 | 0.00 | 0.00 | 63 | 1014.5 |
| 20260901173500 | 89 | 328 | 3.0 | 8.0 | 0.00 | 0.00 | 0.00 | 65 | 1014.7 |
| 20260901173026 | 88 | 17 | 3.0 | 8.0 | 0.00 | 0.00 | 0.00 | 66 | 1014.8 |
| 20260901172502 | 88 | 353 | 3.0 | 6.0 | 0.00 | 0.00 | 0.00 | 66 | 1014.9 |
| 20260901172004 | 88 | 44 | 4.0 | 7.0 | 0.00 | 0.00 | 0.00 | 66 | 1015.0 |
| 20260901171516 | 88 | 100 | 4.0 | 11.0 | 0.00 | 0.00 | 0.00 | 66 | 1015.3 |
| 20260901171002 | 88 | 337 | 4.0 | 11.0 | 0.00 | 0.00 | 0.00 | 65 | 1015.3 |
| 20260901170502 | 88 | 4 | 4.0 | 10.0 | 0.00 | 0.00 | 0.00 | 64 | 1015.4 |
| 20260901170020 | 88 | 323 | 3.0 | 8.0 | 0.00 | 0.00 | 0.00 | 64 | 1015.4 |
| 20260901165500 | 87 | 19 | 3.0 | 8.0 | 0.00 | 0.00 | 0.00 | 65 | 1015.4 |
| 20260901165000 | 87 | 23 | 3.0 | 8.0 | 0.00 | 0.00 | 0.00 | 66 | 1015.4 |
| 20260901164516 | 87 | 40 | 2.0 | 5.0 | 0.00 | 0.00 | 0.00 | 67 | 1015.4 |
| 20260901164001 | 87 | 353 | 2.0 | 6.0 | 0.00 | 0.00 | 0.00 | 68 | 1015.4 |
| 20260901163500 | 87 | 257 | 3.0 | 8.0 | 0.00 | 0.00 | 0.00 | 67 | 1015.4 |
| 20260901162500 | 87 | 43 | 3.0 | 6.0 | 0.00 | 0.00 | 0.00 | 67 | 1015.4 |
| 20260901162001 | 87 | 40 | 3.0 | 6.0 | 0.00 | 0.00 | 0.00 | 68 | 1015.4 |
| 20260901161514 | 87 | 358 | 3.0 | 6.0 | 0.00 | 0.00 | 0.00 | 68 | 1015.4 |
| 20260901161001 | 87 | 72 | 3.0 | 8.0 | 0.00 | 0.00 | 0.00 | 68 | 1015.3 |
| 20260901160500 | 87 | 342 | 3.0 | 8.0 | 0.00 | 0.00 | 0.00 | 68 | 1015.2 |
| 20260901160023 | 87 | 28 | 3.0 | 6.0 | 0.00 | 0.00 | 0.00 | 68 | 1015.2 |
| 20260901155500 | 86 | 296 | 3.0 | 6.0 | 0.00 | 0.00 | 0.00 | 69 | 1015.2 |
| 20260901154516 | 86 | 301 | 3.0 | 8.0 | 0.00 | 0.00 | 0.00 | 69 | 1015.2 |
| 20260901154002 | 86 | 340 | 3.0 | 8.0 | 0.00 | 0.00 | 0.00 | 69 | 1015.2 |
| 20260901153020 | 86 | 41 | 3.0 | 6.0 | 0.00 | 0.00 | 0.00 | 70 | 1015.2 |
| 20260901152500 | 86 | 343 | 3.0 | 6.0 | 0.00 | 0.00 | 0.00 | 70 | 1015.2 |
| 20260901152001 | 86 | 55 | 3.0 | 6.0 | 0.00 | 0.00 | 0.00 | 70 | 1015.1 |
| 20260901151001 | 86 | 31 | 3.0 | 8.0 | 0.00 | 0.00 | 0.00 | 71 | 1015.2 |
| 20260901150501 | 86 | 341 | 3.0 | 6.0 | 0.00 | 0.00 | 0.00 | 71 | 1015.3 |
| 20260901150024 | 86 | 23 | 3.0 | 6.0 | 0.00 | 0.00 | 0.00 | 72 | 1015.3 |
| 20260901145500 | 86 | 323 | 2.0 | 8.0 | 0.00 | 0.00 | 0.00 | 72 | 1015.3 |
| 20260901145001 | 85 | 306 | 2.0 | 6.0 | 0.00 | 0.00 | 0.00 | 72 | 1015.3 |
| 20260901144515 | 86 | 320 | 3.0 | 8.0 | 0.00 | 0.00 | 0.00 | 73 | 1015.3 |
| 20260901143500 | 85 | 300 | 3.0 | 8.0 | 0.00 | 0.00 | 0.00 | 75 | 1015.3 |
| 20260901143021 | 84 | 4 | 3.0 | 8.0 | 0.00 | 0.00 | 0.00 | 76 | 1015.3 |
| 20260901142500 | 84 | 319 | 3.0 | 9.0 | 0.00 | 0.00 | 0.00 | 77 | 1015.3 |
| 20260901141515 | 83 | 52 | 2.0 | 5.0 | 0.00 | 0.00 | 0.00 | 79 | 1015.4 |
| 20260901140459 | 82 | 315 | 3.0 | 6.0 | 0.00 | 0.00 | 0.00 | 80 | 1015.3 |
| 20260901140024 | 82 | 6 | 2.0 | 6.0 | 0.00 | 0.00 | 0.00 | 81 | 1015.4 |
| 20260901135001 | 81 | 29 | 2.0 | 6.0 | 0.00 | 0.00 | 0.00 | 82 | 1015.5 |
| 20260901134515 | 81 | 35 | 2.0 | 5.0 | 0.00 | 0.00 | 0.00 | 83 | 1015.5 |
| 20260901133500 | 80 | 334 | 2.0 | 6.0 | 0.00 | 0.00 | 0.00 | 84 | 1015.5 |
| 20260901133020 | 80 | 15 | 3.0 | 6.0 | 0.00 | 0.00 | 0.00 | 85 | 1015.4 |
| 20260901132500 | 80 | 13 | 2.0 | 5.0 | 0.00 | 0.00 | 0.00 | 85 | 1015.3 |
| 20260901132000 | 79 | 29 | 1.0 | 5.0 | 0.00 | 0.00 | 0.00 | 85 | 1015.2 |
| 20260901131003 | 79 | 12 | 2.0 | 5.0 | 0.00 | 0.00 | 0.00 | 85 | 1015.1 |
| 20260901130500 | 79 | 4 | 1.0 | 3.0 | 0.00 | 0.00 | 0.00 | 85 | 1015.1 |
| 20260901130024 | 79 | 37 | 1.0 | 3.0 | 0.00 | 0.00 | 0.00 | 85 | 1015.0 |
| 20260901124515 | 79 | 52 | 1.0 | 4.0 | 0.00 | 0.00 | 0.00 | 86 | 1014.8 |
| 20260901124000 | 79 | 22 | 1.0 | 4.0 | 0.00 | 0.00 | 0.00 | 86 | 1014.7 |
| 20260901123500 | 78 | 13 | 1.0 | 3.0 | 0.00 | 0.00 | 0.00 | 86 | 1014.7 |
| 20260901123024 | 78 | 11 | 1.0 | 3.0 | 0.00 | 0.00 | 0.00 | 86 | 1014.6 |
| 20260901122500 | 78 | 4 | 0.0 | 3.0 | 0.00 | 0.00 | 0.00 | 86 | 1014.6 |
| 20260901121515 | 78 | 338 | 1.0 | 3.0 | 0.00 | 0.00 | 0.00 | 87 | 1014.5 |
| 20260901121001 | 78 | 353 | 1.0 | 4.0 | 0.00 | 0.00 | 0.00 | 87 | 1014.4 |
| 20260901120500 | 78 | 21 | 1.0 | 4.0 | 0.00 | 0.00 | 0.00 | 87 | 1014.3 |
| 20260901120024 | 78 | 7 | 1.0 | 4.0 | 0.00 | 0.00 | 0.00 | 87 | 1014.3 |
| 20260901115500 | 78 | 12 | 1.0 | 4.0 | 0.00 | 0.00 | 0.00 | 87 | 1014.2 |
| 20260901115000 | 78 | 348 | 1.0 | 3.0 | 0.00 | 0.00 | 0.00 | 87 | 1014.1 |
| 20260901114001 | 78 | 8 | 0.0 | 2.0 | 0.00 | 0.00 | 0.00 | 86 | 1014.2 |
| 20260901113028 | 78 | 348 | 0.0 | 2.0 | 0.00 | 0.00 | 0.00 | 86 | 1014.2 |
| 20260901112500 | 78 | 358 | 0.0 | 2.0 | 0.00 | 0.00 | 0.00 | 86 | 1014.2 |
| 20260901111515 | 78 | 358 | 1.0 | 3.0 | 0.00 | 0.00 | 0.00 | 86 | 1014.3 |
| 20260901111003 | 78 | 2 | 1.0 | 3.0 | 0.00 | 0.00 | 0.00 | 86 | 1014.2 |
| 20260901110500 | 78 | 340 | 1.0 | 3.0 | 0.00 | 0.00 | 0.00 | 86 | 1014.2 |
| 20260901110025 | 79 | 30 | 1.0 | 2.0 | 0.00 | 0.00 | 0.00 | 86 | 1014.2 |
| 20260901105459 | 79 | 30 | 1.0 | 2.0 | 0.00 | 0.00 | 0.00 | 86 | 1014.1 |
| 20260901105001 | 79 | 41 | 0.0 | 2.0 | 0.00 | 0.00 | 0.00 | 86 | 1014.1 |
| 20260901104001 | 79 | 41 | 0.0 | 2.0 | 0.00 | 0.00 | 0.00 | 86 | 1014.0 |
| 20260901103501 | 79 | 41 | 1.0 | 2.0 | 0.00 | 0.00 | 0.00 | 86 | 1014.0 |
| 20260901103023 | 79 | 12 | 1.0 | 2.0 | 0.00 | 0.00 | 0.00 | 86 | 1014.0 |
| 20260901102500 | 79 | 24 | 0.0 | 2.0 | 0.00 | 0.00 | 0.00 | 86 | 1014.0 |
| 20260901102001 | 79 | 304 | 0.0 | 1.0 | 0.00 | 0.00 | 0.00 | 86 | 1014.0 |
| 20260901101516 | 79 | 304 | 0.0 | 1.0 | 0.00 | 0.00 | 0.00 | 86 | 1013.9 |
| 20260901101000 | 79 | 304 | 0.0 | 1.0 | 0.00 | 0.00 | 0.00 | 86 | 1013.9 |
| 20260901100459 | 79 | 304 | 0.0 | 1.0 | 0.00 | 0.00 | 0.00 | 86 | 1014.0 |
| 20260901100025 | 78 | 304 | 0.0 | 0.0 | 0.00 | 0.00 | 0.00 | 86 | 1014.1 |
| 20260901095500 | 79 | 304 | 0.0 | 1.0 | 0.00 | 0.00 | 0.00 | 86 | 1014.0 |
| 20260901095001 | 79 | 304 | 0.0 | 1.0 | 0.00 | 0.00 | 0.00 | 86 | 1014.0 |
| 20260901094002 | 79 | 304 | 0.0 | 0.0 | 0.00 | 0.00 | 0.00 | 85 | 1014.1 |
| 20260901093024 | 79 | 304 | 0.0 | 0.0 | 0.00 | 0.00 | 0.00 | 85 | 1014.1 |
| 20260901092500 | 79 | 304 | 0.0 | 0.0 | 0.00 | 0.00 | 0.00 | 84 | 1014.1 |
| 20260901092001 | 79 | 304 | 0.0 | 0.0 | 0.00 | 0.00 | 0.00 | 84 | 1014.1 |
| 20260901091514 | 80 | 304 | 0.0 | 1.0 | 0.00 | 0.00 | 0.00 | 84 | 1014.1 |
| 20260901091001 | 80 | 304 | 0.0 | 0.0 | 0.00 | 0.00 | 0.00 | 84 | 1014.1 |
| 20260901090459 | 80 | 304 | 0.0 | 0.0 | 0.00 | 0.00 | 0.00 | 83 | 1014.1 |
| 20260901090023 | 80 | 304 | 0.0 | 2.0 | 0.00 | 0.00 | 0.00 | 83 | 1014.1 |
| 20260901085000 | 80 | 291 | 0.0 | 2.0 | 0.00 | 0.00 | 0.00 | 83 | 1014.0 |
| 20260901084514 | 80 | 289 | 1.0 | 2.0 | 0.00 | 0.00 | 0.00 | 82 | 1014.1 |
| 20260901084000 | 80 | 306 | 1.0 | 4.0 | 0.00 | 0.00 | 0.00 | 82 | 1014.1 |
| 20260901083459 | 80 | 306 | 0.0 | 4.0 | 0.00 | 0.00 | 0.00 | 82 | 1014.2 |
| 20260901083020 | 80 | 272 | 0.0 | 1.0 | 0.00 | 0.00 | 0.00 | 82 | 1014.2 |
| 20260901082458 | 80 | 279 | 0.0 | 1.0 | 0.00 | 0.00 | 0.00 | 82 | 1014.2 |
| 20260901082002 | 80 | 279 | 0.0 | 1.0 | 0.00 | 0.00 | 0.00 | 82 | 1014.3 |
| 20260901080459 | 80 | 171 | 0.0 | 0.0 | 0.00 | 0.00 | 0.00 | 81 | 1014.4 |
| 20260901080023 | 80 | 171 | 0.0 | 0.0 | 0.00 | 0.00 | 0.00 | 82 | 1014.3 |
| 20260901075459 | 80 | 171 | 0.0 | 0.0 | 0.00 | 0.00 | 0.00 | 82 | 1014.4 |
| 20260901074959 | 80 | 171 | 0.0 | 0.0 | 0.00 | 0.00 | 0.00 | 81 | 1014.5 |
| 20260901074513 | 80 | 171 | 0.0 | 0.0 | 0.00 | 0.00 | 0.00 | 81 | 1014.4 |
| 20260901074000 | 80 | 171 | 0.0 | 0.0 | 0.00 | 0.00 | 0.00 | 81 | 1014.3 |
| 20260901073459 | 80 | 171 | 0.0 | 0.0 | 0.00 | 0.00 | 0.00 | 81 | 1014.4 |
| 20260901073021 | 80 | 171 | 0.0 | 1.0 | 0.00 | 0.00 | 0.00 | 81 | 1014.4 |
| 20260901072459 | 80 | 171 | 0.0 | 1.0 | 0.00 | 0.00 | 0.00 | 81 | 1014.4 |
| 20260901071959 | 80 | 171 | 0.0 | 0.0 | 0.00 | 0.00 | 0.00 | 81 | 1014.4 |
| 20260901071513 | 80 | 171 | 0.0 | 0.0 | 0.00 | 0.00 | 0.00 | 81 | 1014.5 |
| 20260901071000 | 81 | 171 | 0.0 | 0.0 | 0.00 | 0.00 | 0.00 | 81 | 1014.5 |
| 20260901070459 | 81 | 171 | 0.0 | 0.0 | 0.00 | 0.00 | 0.00 | 81 | 1014.5 |
| 20260901070025 | 81 | 171 | 0.0 | 0.0 | 0.00 | 0.00 | 0.00 | 80 | 1014.3 |
| 20260901065459 | 81 | 171 | 0.0 | 0.0 | 0.00 | 0.00 | 0.00 | 80 | 1014.4 |
| 20260901064959 | 81 | 171 | 0.0 | 0.0 | 0.00 | 0.00 | 0.00 | 80 | 1014.4 |
| 20260901064514 | 81 | 171 | 0.0 | 0.0 | 0.00 | 0.00 | 0.00 | 80 | 1014.5 |
| 20260901063959 | 81 | 171 | 0.0 | 0.0 | 0.00 | 0.00 | 0.00 | 80 | 1014.5 |
| 20260901063459 | 81 | 171 | 0.0 | 0.0 | 0.00 | 0.00 | 0.00 | 80 | 1014.5 |
| 20260901063022 | 81 | 171 | 0.0 | 0.0 | 0.00 | 0.00 | 0.00 | 79 | 1014.5 |
| 20260901062459 | 81 | 171 | 0.0 | 0.0 | 0.00 | 0.00 | 0.00 | 79 | 1014.5 |
| 20260901062000 | 81 | 171 | 0.0 | 0.0 | 0.00 | 0.00 | 0.00 | 79 | 1014.5 |
| 20260901061514 | 81 | 171 | 0.0 | 0.0 | 0.00 | 0.00 | 0.00 | 79 | 1014.6 |
| 20260901061000 | 82 | 171 | 0.0 | 0.0 | 0.00 | 0.00 | 0.00 | 79 | 1014.6 |
| 20260901060459 | 82 | 171 | 0.0 | 0.0 | 0.00 | 0.00 | 0.00 | 79 | 1014.6 |
| 20260901060026 | 82 | 171 | 0.0 | 0.0 | 0.00 | 0.00 | 0.00 | 78 | 1014.7 |
| 20260901055502 | 82 | 171 | 0.0 | 0.0 | 0.00 | 0.00 | 0.00 | 78 | 1014.7 |
| 20260901054517 | 82 | 171 | 0.0 | 0.0 | 0.00 | 0.00 | 0.00 | 77 | 1014.5 |
| 20260901053501 | 82 | 171 | 0.0 | 0.0 | 0.00 | 0.00 | 0.00 | 77 | 1014.5 |
| 20260901053025 | 82 | 171 | 0.0 | 0.0 | 0.00 | 0.00 | 0.00 | 76 | 1014.4 |
| 20260901051517 | 83 | 141 | 0.0 | 1.0 | 0.00 | 0.00 | 0.00 | 76 | 1014.4 |
| 20260901051002 | 83 | 150 | 0.0 | 2.0 | 0.00 | 0.00 | 0.00 | 75 | 1014.4 |
| 20260901050501 | 83 | 156 | 0.0 | 3.0 | 0.00 | 0.00 | 0.00 | 75 | 1014.4 |
| 20260901050030 | 83 | 143 | 1.0 | 3.0 | 0.00 | 0.00 | 0.00 | 75 | 1014.3 |
| 20260901045504 | 83 | 134 | 1.0 | 3.0 | 0.00 | 0.00 | 0.00 | 75 | 1014.3 |
| 20260901045004 | 83 | 123 | 1.0 | 2.0 | 0.00 | 0.00 | 0.00 | 74 | 1014.2 |
| 20260901044519 | 83 | 84 | 1.0 | 2.0 | 0.00 | 0.00 | 0.00 | 74 | 1014.2 |
| 20260901044004 | 84 | 171 | 1.0 | 3.0 | 0.00 | 0.00 | 0.00 | 74 | 1014.1 |
| 20260901043505 | 84 | 94 | 1.0 | 3.0 | 0.00 | 0.00 | 0.00 | 74 | 1014.1 |
| 20260901043029 | 84 | 151 | 1.0 | 3.0 | 0.00 | 0.00 | 0.00 | 73 | 1014.1 |
| 20260901042504 | 84 | 141 | 1.0 | 3.0 | 0.00 | 0.00 | 0.00 | 73 | 1014.2 |
| 20260901042005 | 84 | 161 | 2.0 | 4.0 | 0.00 | 0.00 | 0.00 | 73 | 1014.2 |
| 20260901041005 | 84 | 151 | 1.0 | 5.0 | 0.00 | 0.00 | 0.00 | 72 | 1014.2 |
| 20260901040504 | 84 | 191 | 1.0 | 4.0 | 0.00 | 0.00 | 0.00 | 72 | 1014.2 |
| 20260901040028 | 84 | 118 | 1.0 | 4.0 | 0.00 | 0.00 | 0.00 | 72 | 1014.2 |
| 20260901035503 | 84 | 131 | 1.0 | 4.0 | 0.00 | 0.00 | 0.00 | 72 | 1014.2 |
| 20260901035004 | 84 | 164 | 1.0 | 2.0 | 0.00 | 0.00 | 0.00 | 71 | 1014.1 |
| 20260901034518 | 84 | 135 | 0.0 | 2.0 | 0.00 | 0.00 | 0.00 | 71 | 1014.1 |
| 20260901034005 | 84 | 166 | 0.0 | 2.0 | 0.00 | 0.00 | 0.00 | 71 | 1014.0 |
| 20260901033027 | 84 | 152 | 1.0 | 3.0 | 0.00 | 0.00 | 0.00 | 71 | 1013.8 |
| 20260901032503 | 84 | 133 | 1.0 | 3.0 | 0.00 | 0.00 | 0.00 | 71 | 1013.8 |
| 20260901031518 | 84 | 94 | 0.0 | 1.0 | 0.00 | 0.00 | 0.00 | 71 | 1013.7 |
| 20260901031005 | 84 | 94 | 0.0 | 1.0 | 0.00 | 0.00 | 0.00 | 72 | 1013.6 |
| 20260901030503 | 84 | 94 | 0.0 | 1.0 | 0.00 | 0.00 | 0.00 | 71 | 1013.6 |
| 20260901030029 | 84 | 94 | 0.0 | 1.0 | 0.00 | 0.00 | 0.00 | 71 | 1013.5 |
| 20260901025003 | 85 | 94 | 0.0 | 1.0 | 0.00 | 0.00 | 0.00 | 70 | 1013.4 |
| 20260901024518 | 85 | 94 | 1.0 | 3.0 | 0.00 | 0.00 | 0.00 | 70 | 1013.3 |
| 20260901024006 | 85 | 94 | 1.0 | 5.0 | 0.00 | 0.00 | 0.00 | 69 | 1013.2 |
| 20260901023024 | 85 | 125 | 1.0 | 4.0 | 0.00 | 0.00 | 0.00 | 69 | 1013.1 |
| 20260901022503 | 85 | 127 | 0.0 | 2.0 | 0.00 | 0.00 | 0.00 | 69 | 1013.0 |
| 20260901021517 | 86 | 107 | 1.0 | 2.0 | 0.00 | 0.00 | 0.00 | 68 | 1012.9 |
| 20260901021004 | 86 | 159 | 1.0 | 3.0 | 0.00 | 0.00 | 0.00 | 68 | 1012.9 |
| 20260901020503 | 86 | 102 | 1.0 | 3.0 | 0.00 | 0.00 | 0.00 | 67 | 1012.9 |
| 20260901020025 | 87 | 353 | 1.0 | 3.0 | 0.00 | 0.00 | 0.00 | 67 | 1012.8 |
| 20260901015503 | 87 | 198 | 1.0 | 4.0 | 0.00 | 0.00 | 0.00 | 67 | 1012.7 |
| 20260901015004 | 87 | 353 | 1.0 | 4.0 | 0.00 | 0.00 | 0.00 | 67 | 1012.7 |
| 20260901014517 | 87 | 197 | 1.0 | 3.0 | 0.00 | 0.00 | 0.00 | 67 | 1012.7 |
| 20260901013503 | 87 | 121 | 1.0 | 3.0 | 0.00 | 0.00 | 0.00 | 67 | 1012.7 |
| 20260901013026 | 87 | 135 | 1.0 | 3.0 | 0.00 | 0.00 | 0.00 | 67 | 1012.7 |
| 20260901012005 | 87 | 353 | 1.0 | 2.0 | 0.00 | 0.00 | 0.00 | 67 | 1012.7 |
| 20260901011518 | 87 | 353 | 1.0 | 2.0 | 0.00 | 0.00 | 0.00 | 66 | 1012.7 |
| 20260901011004 | 88 | 163 | 1.0 | 3.0 | 0.00 | 0.00 | 0.00 | 66 | 1012.6 |
| 20260901010502 | 88 | 112 | 1.0 | 4.0 | 0.00 | 0.00 | 0.00 | 65 | 1012.6 |
| 20260901010023 | 88 | 131 | 1.0 | 3.0 | 0.00 | 0.01 | 0.00 | 65 | 1012.6 |
| 20260901005503 | 88 | 125 | 1.0 | 5.0 | 0.00 | 0.01 | 0.00 | 65 | 1012.5 |
| 20260901005002 | 88 | 183 | 1.0 | 5.0 | 0.00 | 0.01 | 0.00 | 65 | 1012.5 |
| 20260901004517 | 88 | 145 | 1.0 | 4.0 | 0.00 | 0.01 | 0.00 | 64 | 1012.6 |
| 20260901004002 | 89 | 109 | 1.0 | 4.0 | 0.00 | 0.01 | 0.00 | 64 | 1012.6 |
| 20260901003501 | 89 | 205 | 1.0 | 4.0 | 0.00 | 0.01 | 0.00 | 63 | 1012.6 |
| 20260901003024 | 89 | 135 | 2.0 | 5.0 | 0.00 | 0.01 | 0.00 | 63 | 1012.7 |
| 20260901002502 | 89 | 134 | 2.0 | 6.0 | 0.00 | 0.01 | 0.00 | 63 | 1012.7 |
| 20260901001517 | 89 | 112 | 2.0 | 4.0 | 0.00 | 0.01 | 0.00 | 62 | 1012.7 |
| 20260901001003 | 90 | 125 | 2.0 | 4.0 | 0.00 | 0.01 | 0.00 | 61 | 1012.6 |
| 20260901000502 | 90 | 353 | 2.0 | 5.0 | 0.00 | 0.01 | 0.00 | 61 | 1012.6 |
| 20260901000028 | 90 | 121 | 1.0 | 5.0 | 0.00 | 0.01 | 0.00 | 61 | 1012.7 |
| 20260831235503 | 90 | 77 | 2.0 | 3.0 | 0.00 | 0.01 | 0.00 | 61 | 1012.7 |
| 20260831235004 | 90 | 97 | 2.0 | 4.0 | 0.00 | 0.01 | 0.00 | 61 | 1012.7 |
| 20260831234518 | 90 | 198 | 2.0 | 4.0 | 0.00 | 0.01 | 0.00 | 60 | 1012.7 |
| 20260831233502 | 90 | 135 | 1.0 | 4.0 | 0.00 | 0.01 | 0.00 | 60 | 1012.8 |
| 20260831232503 | 90 | 116 | 2.0 | 6.0 | 0.00 | 0.01 | 0.00 | 59 | 1012.8 |
| 20260831232003 | 90 | 353 | 2.0 | 6.0 | 0.00 | 0.01 | 0.00 | 59 | 1012.7 |
| 20260831231518 | 90 | 129 | 2.0 | 6.0 | 0.00 | 0.01 | 0.00 | 59 | 1012.8 |
| 20260831231005 | 90 | 39 | 2.0 | 6.0 | 0.00 | 0.01 | 0.00 | 58 | 1012.7 |
| 20260831230502 | 90 | 125 | 3.0 | 8.0 | 0.00 | 0.01 | 0.00 | 57 | 1012.7 |
| 20260831230025 | 90 | 188 | 2.0 | 8.0 | 0.00 | 0.01 | 0.00 | 56 | 1012.7 |
| 20260831225002 | 90 | 119 | 1.0 | 5.0 | 0.00 | 0.01 | 0.00 | 55 | 1012.7 |
| 20260831224516 | 90 | 171 | 2.0 | 5.0 | 0.00 | 0.01 | 0.00 | 54 | 1012.7 |
| 20260831223502 | 90 | 160 | 3.0 | 7.0 | 0.00 | 0.01 | 0.00 | 55 | 1012.8 |
| 20260831223025 | 90 | 154 | 2.0 | 8.0 | 0.00 | 0.01 | 0.00 | 56 | 1012.9 |
| 20260831222502 | 90 | 150 | 3.0 | 8.0 | 0.00 | 0.01 | 0.00 | 55 | 1012.8 |
| 20260831222003 | 90 | 112 | 3.0 | 6.0 | 0.00 | 0.01 | 0.00 | 56 | 1012.9 |
| 20260831221516 | 90 | 157 | 2.0 | 6.0 | 0.00 | 0.01 | 0.00 | 56 | 1012.8 |
| 20260831220502 | 90 | 76 | 2.0 | 7.0 | 0.00 | 0.01 | 0.00 | 55 | 1012.9 |
| 20260831220027 | 90 | 139 | 3.0 | 7.0 | 0.00 | 0.01 | 0.00 | 55 | 1013.0 |
| 20260831215501 | 90 | 213 | 3.0 | 7.0 | 0.00 | 0.01 | 0.00 | 56 | 1013.0 |
| 20260831215001 | 90 | 156 | 3.0 | 7.0 | 0.00 | 0.01 | 0.00 | 56 | 1013.1 |
| 20260831214516 | 90 | 173 | 3.0 | 8.0 | 0.00 | 0.01 | 0.00 | 56 | 1013.2 |
| 20260831214001 | 90 | 353 | 2.0 | 8.0 | 0.00 | 0.01 | 0.00 | 59 | 1013.2 |
| 20260831213024 | 90 | 353 | 2.0 | 6.0 | 0.00 | 0.01 | 0.00 | 61 | 1013.3 |
| 20260831212501 | 90 | 353 | 2.0 | 6.0 | 0.00 | 0.01 | 0.00 | 62 | 1013.3 |
| 20260831212005 | 90 | 171 | 3.0 | 7.0 | 0.00 | 0.01 | 0.00 | 63 | 1013.3 |
| 20260831211517 | 90 | 167 | 3.0 | 8.0 | 0.00 | 0.01 | 0.00 | 62 | 1013.3 |
| 20260831210500 | 90 | 353 | 3.0 | 9.0 | 0.00 | 0.01 | 0.00 | 63 | 1013.5 |
| 20260831210024 | 90 | 123 | 3.0 | 9.0 | 0.00 | 0.01 | 0.00 | 63 | 1013.5 |
| 20260831205502 | 91 | 123 | 3.0 | 8.0 | 0.00 | 0.01 | 0.00 | 63 | 1013.5 |
| 20260831204516 | 91 | 164 | 3.0 | 9.0 | 0.00 | 0.01 | 0.00 | 63 | 1013.6 |
| 20260831204003 | 91 | 353 | 3.0 | 9.0 | 0.00 | 0.01 | 0.00 | 62 | 1013.6 |
| 20260831203502 | 92 | 166 | 4.0 | 14.0 | 0.00 | 0.01 | 0.00 | 61 | 1013.7 |
| 20260831203027 | 92 | 108 | 4.0 | 14.0 | 0.00 | 0.01 | 0.00 | 61 | 1013.8 |
| 20260831202002 | 95 | 127 | 2.0 | 10.0 | 0.00 | 0.01 | 0.00 | 55 | 1013.7 |
| 20260831201517 | 95 | 353 | 1.0 | 5.0 | 0.00 | 0.01 | 0.00 | 52 | 1013.7 |
| 20260831200501 | 95 | 60 | 2.0 | 5.0 | 0.00 | 0.01 | 0.00 | 52 | 1013.9 |
| 20260831195002 | 94 | 185 | 3.0 | 7.0 | 0.00 | 0.01 | 0.00 | 52 | 1014.0 |
| 20260831194515 | 94 | 202 | 3.0 | 6.0 | 0.00 | 0.01 | 0.00 | 52 | 1014.1 |